Temp
-15 -15 -15 -15 -15 -15 -15 -15 -15 -15 -15 -15 -15 -15 -15 -15 -16 -16 -16 -17 -17 -17 -18 -19 -18 -18 -18 -18 -18 -18 -18 -18
-15 -15 -15 -15 -15 -15 -15 -15 -15 -15 -15 -15 -15 -15 -15 -15 -15 -16 -17 -17 -18 -18 -18 -18 -18 -19 -19 -19 -19 -19 -19 -19
-16 -16 -16 -16 -16 -15 -15 -15 -15 -15 -15 -15 -15 -15 -15 -15 -16 -16 -16 -17 -17 -18 -19 -19 -19 -19 -20 -19 -19 -19 -19 -19
-16 -16 -16 -16 -16 -16 -15 -16 -15 -15 -15 -15 -15 -15 -15 -15 -16 -16 -16 -17 -18 -18 -19 -19 -19 -19 -19 -19 -19 -19 -19 -19
-16 -16 -16 -16 -16 -15 -15 -15 -15 -15 -15 -15 -15 -15 -15 -15 -16 -16 -16 -17 -18 -18 -18 -19 -19 -19 -19 -19 -19 -19 -19 -19
-15 -16 -16 -15 -15 -15 -15 -15 -15 -15 -15 -15 -15 -15 -15 -15 -16 -17 -17 -17 -18 -18 -18 -19 -19 -20 -20 -19 -19 -19 -19 -19
-15 -16 -15 -15 -14 -15 -15 -14 -14 -15 -15 -15 -15 -15 -16 -16 -16 -17 -17 -18 -18 -18 -19 -19 -19 -20 -20 -19 -19 -19 -20 -20
-15 -15 -14 -14 -14 -14 -15 -15 -15 -15 -15 -15 -15 -16 -16 -17 -18 -18 -18 -18 -19 -19 -19 -19 -20 -20 -20 -20 -20 -20 -21 -21
-14 -14 -14 -14 -14 -15 -15 -15 -15 -15 -15 -16 -16 -16 -17 -18 -18 -18 -18 -19 -19 -19 -20 -20 -20 -20 -20 -20 -21 -21 -21 -21
-14 -14 -14 -14 -14 -15 -15 -15 -15 -15 -16 -16 -16 -17 -17 -18 -18 -18 -19 -19 -19 -20 -20 -20 -20 -21 -21 -21 -21 -22 -22 -23
-14 -14 -14 -15 -15 -15 -15 -15 -16 -16 -16 -17 -17 -17 -18 -18 -18 -19 -19 -19 -20 -20 -21 -21 -21 -21 -21 -22 -22 -23 -23 -23
-15 -15 -15 -15 -15 -15 -15 -16 -16 -16 -17 -17 -17 -18 -18 -19 -19 -19 -20 -20 -20 -21 -21 -21 -22 -22 -22 -22 -23 -23 -23 -25
-15 -15 -15 -15 -16 -16 -16 -16 -16 -17 -17 -17 -18 -19 -19 -19 -19 -20 -20 -20 -21 -21 -21 -22 -22 -22 -22 -23 -23 -23 -24 -27
-15 -15 -16 -16 -16 -16 -16 -17 -17 -18 -18 -18 -18 -19 -19 -19 -20 -20 -20 -21 -21 -21 -22 -22 -22 -23 -23 -23 -24 -24 -27 -28
-16 -16 -16 -16 -17 -17 -17 -17 -18 -18 -18 -19 -19 -19 -20 -20 -20 -20 -21 -21 -21 -22 -22 -23 -23 -23 -23 -23 -24 -26 -28 -30
-16 -16 -16 -17 -17 -17 -18 -18 -18 -19 -19 -19 -19 -20 -20 -20 -20 -21 -21 -21 -22 -22 -22 -23 -23 -23 -23 -24 -25 -27 -29 -31
-17 -17 -17 -17 -17 -18 -18 -19 -19 -19 -19 -20 -20 -20 -20 -21 -21 -21 -22 -22 -22 -22 -23 -24 -24 -24 -24 -25 -27 -29 -31 -32
-17 -17 -18 -18 -18 -19 -19 -19 -19 -19 -20 -20 -20 -21 -21 -21 -21 -22 -22 -22 -23 -23 -24 -24 -23 -24 -25 -26 -28 -30 -32 -32
-18 -18 -18 -19 -19 -19 -19 -19 -19 -19 -20 -20 -21 -21 -21 -21 -21 -22 -22 -22 -23 -24 -24 -24 -24 -24 -26 -28 -30 -31 -32 -33
Height
5795 5796 5796 5796 5796 5796 5796 5794 5793 5792 5789 5787 5784 5781 5778 5774 5771 5767 5764 5760 5757 5753 5750 5747 5743 5739 5734 5729 5725 5720 5716 5711
5794 5795 5794 5793 5792 5791 5789 5789 5788 5786 5785 5782 5779 5777 5773 5769 5764 5758 5755 5752 5750 5746 5742 5738 5733 5727 5721 5716 5712 5708 5703 5698
5792 5792 5791 5790 5789 5787 5787 5785 5784 5782 5780 5777 5773 5769 5765 5761 5758 5756 5752 5747 5742 5736 5732 5726 5720 5715 5710 5705 5700 5696 5691 5685
5790 5789 5788 5788 5786 5784 5783 5781 5779 5777 5775 5772 5768 5764 5760 5757 5754 5749 5744 5738 5732 5727 5722 5717 5711 5705 5699 5692 5686 5682 5675 5670
5788 5786 5786 5784 5782 5780 5778 5776 5774 5772 5770 5766 5763 5759 5756 5752 5745 5740 5734 5730 5725 5719 5713 5706 5699 5692 5685 5679 5672 5666 5660 5653
5783 5783 5782 5780 5777 5776 5774 5772 5771 5768 5765 5762 5758 5754 5749 5743 5737 5732 5726 5721 5714 5708 5701 5694 5688 5680 5671 5665 5659 5650 5642 5634
5779 5778 5777 5775 5774 5773 5771 5769 5766 5763 5760 5756 5751 5746 5740 5734 5729 5723 5717 5710 5703 5696 5688 5680 5672 5665 5658 5650 5642 5633 5625 5615
5776 5775 5773 5772 5771 5769 5767 5764 5761 5757 5753 5748 5743 5737 5730 5725 5719 5711 5706 5700 5692 5684 5676 5668 5659 5651 5643 5635 5625 5616 5605 5595
5772 5771 5769 5768 5766 5764 5761 5758 5754 5750 5745 5739 5733 5728 5722 5716 5711 5704 5696 5688 5680 5672 5665 5656 5647 5639 5629 5620 5609 5598 5586 5573
5769 5767 5766 5764 5761 5758 5755 5751 5746 5741 5735 5731 5725 5719 5713 5706 5700 5693 5684 5676 5667 5659 5651 5643 5635 5626 5614 5602 5591 5577 5564 5550
5765 5763 5761 5758 5755 5751 5747 5742 5737 5732 5727 5721 5714 5708 5702 5695 5688 5680 5672 5662 5654 5646 5638 5629 5620 5609 5600 5587 5574 5561 5545 5528
5760 5757 5754 5751 5747 5743 5738 5734 5728 5722 5717 5710 5703 5696 5689 5683 5676 5668 5659 5650 5642 5633 5624 5615 5605 5594 5583 5570 5557 5542 5524 5507
5753 5750 5747 5742 5738 5733 5729 5724 5718 5712 5705 5698 5692 5684 5678 5671 5662 5654 5645 5637 5628 5619 5610 5600 5591 5578 5565 5553 5537 5522 5505 5490
5745 5742 5738 5732 5728 5723 5718 5713 5707 5700 5693 5686 5678 5672 5665 5657 5648 5639 5631 5623 5614 5605 5595 5584 5574 5563 5549 5533 5519 5502 5486 5473
5736 5732 5728 5723 5717 5712 5706 5701 5694 5687 5681 5673 5666 5659 5652 5643 5635 5625 5617 5609 5599 5590 5579 5568 5556 5544 5530 5516 5499 5483 5470 5459
5727 5722 5717 5712 5706 5700 5694 5688 5682 5675 5668 5661 5654 5647 5639 5630 5621 5612 5603 5595 5585 5575 5564 5551 5538 5524 5510 5496 5480 5467 5456 5448
5716 5711 5705 5700 5694 5689 5683 5677 5670 5663 5656 5649 5642 5633 5625 5616 5607 5598 5589 5580 5570 5560 5549 5536 5523 5508 5490 5477 5465 5453 5444 5437
5704 5699 5694 5688 5682 5678 5671 5665 5658 5651 5644 5636 5628 5620 5613 5604 5594 5584 5574 5564 5554 5543 5531 5520 5508 5495 5475 5463 5452 5442 5434 5428
5693 5688 5682 5676 5671 5665 5659 5652 5646 5639 5631 5624 5616 5608 5599 5589 5579 5569 5559 5549 5538 5526 5515 5505 5490 5482 5462 5450 5441 5433 5426 5419
Wind_Speed
7 6 8 11 13 16 19 20 22 24 24 27 32 38 39 41 42 45 46 43 42 44 41 41 44 47 50 53 55 56 56 56
12 13 14 15 19 22 24 24 25 22 27 32 36 38 40 40 43 45 45 46 46 47 50 51 52 52 55 56 57 57 58 59
14 14 16 18 22 26 26 27 26 28 30 35 34 35 36 38 40 43 44 46 48 50 50 53 55 53 54 57 59 58 58 58
16 18 19 19 22 26 25 26 27 30 31 29 29 31 35 38 40 43 45 47 50 51 53 54 55 57 59 59 59 57 60 62
20 22 21 23 26 27 26 25 24 22 25 27 30 33 38 40 44 47 50 50 51 53 57 57 59 60 59 58 60 61 66 70
23 23 23 26 27 20 18 19 20 23 26 29 32 36 40 43 46 50 53 55 56 58 60 61 62 63 61 62 63 68 72 76
26 25 26 23 17 17 18 20 22 25 28 32 35 39 43 46 49 50 53 58 60 60 61 65 66 64 64 67 71 75 78 82
26 24 19 16 15 19 21 23 26 30 33 36 39 43 46 50 45 55 58 64 62 61 65 66 66 67 70 72 76 80 82 84
18 17 16 17 20 23 25 28 32 35 38 41 45 47 49 49 50 58 62 64 63 63 65 66 66 69 73 76 80 84 87 90
16 18 20 23 27 29 32 35 37 40 43 46 48 50 52 53 55 59 62 63 63 64 66 67 68 71 75 80 84 85 92 97
21 23 26 30 33 35 38 41 43 46 48 50 52 54 55 56 59 61 63 63 63 65 66 68 71 76 79 83 84 89 97 103
26 29 32 36 38 41 44 46 48 51 53 57 58 58 58 59 60 63 64 63 64 65 67 70 74 78 82 84 90 92 103 90
31 33 37 41 43 45 48 50 52 53 56 58 58 59 59 60 63 63 64 64 64 66 68 72 76 80 87 89 95 99 93 76
37 39 42 45 47 49 51 52 54 56 58 59 59 58 58 61 64 64 64 64 66 68 70 74 78 82 89 95 102 95 77 68
43 45 46 48 51 53 54 54 56 58 59 59 58 58 60 62 64 64 65 66 70 72 74 75 78 86 93 98 102 83 69 60
47 49 51 52 54 55 56 56 58 58 58 57 57 58 59 62 64 64 66 69 73 75 78 76 84 91 93 98 89 75 63 51
51 52 53 54 55 55 55 56 57 55 56 56 58 58 60 64 65 66 68 72 75 79 78 82 89 96 93 87 79 66 53 45
53 53 53 53 53 54 55 54 53 54 56 58 59 61 62 66 68 69 71 75 76 78 79 84 92 96 84 80 69 57 47 42
51 51 51 52 52 52 51 52 54 57 58 59 57 57 64 70 74 75 76 78 76 77 82 87 91 92 79 68 59 48 43 39
Wind_Direction
247 258 265 268 274 280 284 286 286 289 291 295 304 309 311 313 316 318 316 314 313 311 308 303 300 299 301 303 303 302 301 299
258 257 266 279 285 287 289 289 288 286 289 300 305 307 311 311 315 318 316 315 311 309 308 306 305 305 304 303 300 298 297 296
274 274 279 284 282 285 286 286 293 290 295 305 305 309 314 318 316 311 310 311 311 312 310 308 307 303 300 297 295 296 297 298
274 276 279 280 280 281 289 288 287 294 298 301 309 313 315 313 310 311 313 314 313 311 310 308 304 300 298 299 299 301 301 302
270 270 273 272 279 283 286 290 294 301 301 306 310 311 309 308 311 311 310 309 307 307 308 308 308 308 306 304 302 302 303 304
268 266 270 274 280 289 291 292 294 298 301 305 308 308 308 310 308 307 307 307 306 305 306 307 308 307 304 303 304 305 306 307
264 266 271 275 282 288 293 298 300 301 303 305 307 305 305 307 305 305 308 310 308 306 309 311 309 307 306 306 307 308 308 308
265 267 269 278 287 293 297 299 301 301 299 300 301 303 305 307 299 303 303 306 307 308 310 310 309 309 310 310 309 310 309 308
263 270 278 288 294 296 297 298 297 297 299 301 302 304 303 305 297 299 304 307 308 308 309 309 309 310 311 312 312 311 310 311
278 282 282 290 296 297 298 299 300 299 299 300 301 302 304 305 304 307 308 307 308 309 309 309 311 314 316 317 317 315 317 317
285 287 290 293 295 297 298 300 301 299 299 298 299 302 305 307 310 309 309 309 309 309 309 312 315 317 318 320 319 319 320 320
289 290 291 293 296 296 297 299 299 299 299 299 301 302 307 308 308 310 310 309 308 309 312 315 320 321 321 321 321 321 323 316
291 293 293 294 295 297 299 299 299 300 300 302 304 305 305 308 309 310 309 308 309 312 315 319 321 324 323 323 325 325 321 313
294 295 295 296 297 297 299 299 300 301 302 304 305 304 306 308 309 309 309 309 310 313 315 318 323 325 327 327 328 323 317 312
297 297 297 297 298 299 300 300 302 304 304 305 305 307 308 309 310 310 309 309 310 312 313 319 324 327 331 328 328 319 317 312
296 297 297 298 299 300 301 303 303 304 305 305 306 307 308 309 310 310 309 309 310 312 312 319 325 328 330 331 326 320 315 311
296 297 298 299 300 302 302 302 303 304 304 304 305 308 310 311 310 309 310 310 311 311 312 316 325 332 330 329 323 318 314 310
298 299 300 301 301 301 302 303 304 304 304 305 308 308 308 310 310 310 310 310 309 309 311 318 324 332 329 327 321 316 313 309
299 300 299 299 301 302 303 303 304 303 305 307 307 304 307 308 309 308 308 307 306 308 313 324 332 332 327 324 319 315 313 309